Location: Allos
(44.2333°N, 6.6333°E)
Time: 08:27:15
(UTC+00:00)

Cosmos 1943 - Pass Details

Date: 01 December 2020
Orbit: 832 x 851 km, 71.0° (Epoch: 25 January)

Event Time Altitude Azimuth Distance (km) Brightness Sun altitude
Rises 17:49:24 0° 202° (SSW) 3,377 6.8 -19.7°
Reaches altitude 10° 17:51:49 10° 202° (SSW) 2,449 6.0 -20.2°
Maximum altitude 17:57:27 87° 116° (ESE) 851 3.1 -21.2°
Enters shadow 18:00:39 27° 26° (NNE) 1,561 4.3 -21.7°
